| time (UTC) | temp F | wind direction | speed knots | gust knots | rain 1hr in | rain 24hr in | rain mn in | humidity % | barometer mb |
| 20260508195341 | 56 | 245 | 7.8 | 14.8 | 0.00 | 0.31 | 0.00 | 49 | 1003.7 |
| 20260508194346 | 56 | 252 | 6.1 | 14.8 | 0.00 | 0.31 | 0.00 | 49 | 1003.8 |
| 20260508193351 | 56 | 323 | 6.1 | 17.4 | 0.00 | 0.31 | 0.00 | 48 | 1003.7 |
| 20260508192333 | 56 | 285 | 9.6 | 18.2 | 0.00 | 0.31 | 0.00 | 49 | 1003.7 |
| 20260508191338 | 56 | 270 | 10.4 | 16.5 | 0.00 | 0.31 | 0.00 | 50 | 1003.7 |
| 20260508190334 | 56 | 296 | 7.0 | 17.4 | 0.00 | 0.31 | 0.00 | 51 | 1003.5 |
| 20260508185340 | 56 | 243 | 7.0 | 13.0 | 0.00 | 0.31 | 0.00 | 51 | 1003.8 |
| 20260508184345 | 56 | 300 | 7.8 | 26.1 | 0.00 | 0.31 | 0.00 | 52 | 1003.8 |
| 20260508183349 | 56 | 288 | 7.0 | 17.4 | 0.00 | 0.31 | 0.00 | 55 | 1003.5 |
| 20260508182350 | 55 | 271 | 7.8 | 17.4 | 0.00 | 0.31 | 0.00 | 56 | 1003.5 |
| 20260508181351 | 56 | 283 | 7.0 | 13.0 | 0.00 | 0.31 | 0.00 | 56 | 1003.5 |
| 20260508180353 | 55 | 297 | 7.0 | 14.8 | 0.00 | 0.31 | 0.00 | 57 | 1003.3 |
| 20260508175353 | 55 | 283 | 7.0 | 15.6 | 0.00 | 0.31 | 0.00 | 58 | 1003.3 |
| 20260508174337 | 54 | 205 | 7.8 | 18.2 | 0.00 | 0.31 | 0.00 | 60 | 1003.5 |
| 20260508173339 | 54 | 252 | 5.2 | 14.8 | 0.00 | 0.31 | 0.00 | 62 | 1003.4 |
| 20260508172344 | 54 | 266 | 5.2 | 13.0 | 0.00 | 0.31 | 0.00 | 63 | 1003.4 |
| 20260508171411 | 54 | 283 | 7.0 | 13.9 | 0.00 | 0.31 | 0.00 | 63 | 1003.5 |
| 20260508170352 | 54 | 253 | 10.4 | 17.4 | 0.00 | 0.31 | 0.00 | 64 | 1003.6 |
| 20260508165336 | 54 | 186 | 7.0 | 13.9 | 0.00 | 0.31 | 0.00 | 64 | 1003.5 |
| 20260508164355 | 53 | 297 | 8.7 | 15.6 | 0.00 | 0.31 | 0.00 | 66 | 1003.3 |
| 20260508163357 | 53 | 216 | 5.2 | 13.9 | 0.00 | 0.31 | 0.00 | 65 | 1003.5 |
| 20260508162351 | 53 | 272 | 6.1 | 11.3 | 0.00 | 0.31 | 0.00 | 66 | 1003.5 |
| 20260508160347 | 53 | 266 | 4.3 | 14.8 | 0.00 | 0.31 | 0.00 | 68 | 1003.5 |
| 20260508155338 | 52 | 273 | 7.0 | 13.0 | 0.00 | 0.31 | 0.00 | 69 | 1003.7 |
| 20260508154340 | 52 | 302 | 4.3 | 13.0 | 0.00 | 0.31 | 0.00 | 69 | 1003.7 |